Weather History for Jordan, MT

Change the Weather History Date:

Friday, January 4, 2013

  Actual Average Record
Temperature  
Mean Temperature 19 °F 16 °F  
Max Temperature 39 °F 29 °F 59 °F (2012)
Min Temperature -2 °F 4 °F -34 °F (2004)
Degree Days  
Heating Degree Days 46 49  
Month to date heating degree days 203 196  
Since 1 July heating degree days 3302 3646  
Cooling Degree Days 0 0  
Month to date cooling degree days 0 0  
Year to date cooling degree days 0 0  
Moisture  
Dew Point 12 °F    
Average Humidity 72    
Maximum Humidity 91    
Minimum Humidity 52    
Precipitation  
Precipitation 0.00 in 0.01 in 0.32 in (1913)
Month to date precipitation 0.10 0.04  
Year to date precipitation 0.10 0.04  
Snow  
Snow 0.00 in - - ()
Month to date snowfall 0.0  
Since 1 July snowfall 0.0  
Snow Depth 0.00 in    
Sea Level Pressure  
Sea Level Pressure 30.15 in    
Wind  
Wind Speed 6 mph (West)    
Max Wind Speed 16 mph    
Max Gust Speed 20 mph    
T = Trace of Precipitation, MM = Missing Value Source: NWS Daily Summary

Daily Weather History Graph

Daily Weather History Graph

Search for Another Location

Airport:

Trip Planner

Search our weather history database for the weather conditions in past years. The results will help you decide how hot, cold, wet, or windy it might be!

Date:

Astronomy

Jan. 04, 2013 Rise Set
Actual Time 7:54 AM MST 4:31 PM MST
Civil Twilight 7:19 AM MST 5:06 PM MST
Nautical Twilight 6:40 AM MST 5:45 PM MST
Astronomical Twilight 6:03 AM MST 6:22 PM MST
Moon No Moon Rise 11:06 AM MST (1/4)
Length of Visible Light 9h 47m
Length of Day
8h 36m
Waning Gibbous, 54% of the Moon is Illuminated
Jan 4
Waning Gibbous
Jan 4
Last Quarter
Jan 11
New
Jan 18
First Quarter
Jan 26
Full

Hourly Weather History & Observations

Time (MST) Temp. Windchill Dew Point Humidity Pressure Visibility Wind Dir Wind Speed Gust Speed Precip Events Conditions
12:48 AM 3.0 °F -9.3 °F -0.0 °F 87% 30.19 in - West 6.9 mph - N/A   Unknown
1:48 AM 3.0 °F -8.0 °F -0.9 °F 84% 30.17 in - West 5.8 mph - N/A   Unknown
2:48 AM -2.0 °F -15.4 °F -6.0 °F 83% 30.18 in - West 6.9 mph - N/A   Unknown
3:48 AM -0.0 °F - -2.9 °F 88% 30.17 in - Calm Calm - N/A   Unknown
4:48 AM 1.9 °F -5.6 °F -2.0 °F 83% 30.18 in - West 3.5 mph - N/A   Unknown
5:48 AM 1.9 °F - -2.0 °F 83% 30.17 in - Calm Calm - N/A   Unknown
6:48 AM 5.0 °F -2.1 °F 1.0 °F 84% 30.19 in - West 3.5 mph - N/A   Unknown
7:48 AM 3.0 °F -4.4 °F -0.9 °F 84% 30.19 in - West 3.5 mph - N/A   Unknown
8:48 AM 9.0 °F 0.6 °F 5.0 °F 84% 30.19 in - West 4.6 mph - N/A   Unknown
9:48 AM 21.9 °F 12.5 °F 12.0 °F 66% 30.17 in - West 8.1 mph - N/A   Unknown
10:48 AM 30.0 °F 22.4 °F 15.1 °F 54% 30.17 in - West 8.1 mph - N/A   Unknown
11:48 AM 33.1 °F 25.5 °F 19.0 °F 56% 30.13 in - West 9.2 mph - N/A   Unknown
12:48 PM 36.0 °F 29.6 °F 19.9 °F 52% 30.11 in - West 8.1 mph - N/A   Unknown
1:48 PM 37.9 °F 32.1 °F 21.9 °F 53% 30.09 in - West 8.1 mph - N/A   Unknown
2:48 PM 37.9 °F 32.1 °F 23.0 °F 55% 30.10 in - WSW 8.1 mph - N/A   Unknown
3:48 PM 34.0 °F 28.0 °F 23.0 °F 64% 30.12 in - West 6.9 mph - N/A   Unknown
4:48 PM 27.0 °F - 19.9 °F 75% 30.14 in - Calm Calm - N/A   Unknown
5:48 PM 21.9 °F - 17.1 °F 82% 30.15 in - Calm Calm - N/A   Unknown
6:48 PM 24.1 °F 14.4 °F 18.0 °F 77% 30.13 in - West 9.2 mph - N/A   Unknown
7:48 PM 27.0 °F 21.6 °F 19.9 °F 75% 30.14 in - WNW 4.6 mph - N/A   Unknown
8:48 PM 27.0 °F 19.5 °F 19.9 °F 75% 30.12 in - West 6.9 mph - N/A   Unknown
9:48 PM 27.0 °F 16.7 °F 21.0 °F 78% 30.11 in - West 11.5 mph - N/A   Unknown
10:48 PM 27.0 °F 16.1 °F 21.0 °F 78% 30.12 in - WNW 12.7 mph - N/A   Unknown
11:48 PM 30.0 °F 19.5 °F 21.9 °F 72% 30.12 in - WNW 13.8 mph - N/A   Unknown